Wind_Speed
18 16 14 12 12 12 12 12 13 13 13 12 11 11 11 10 10 10 10 8 6 5 4 6 8 8 8 7 7 7 7 6 5 4 4 4 4 3 3 3 5 7
18 16 14 12 12 12 11 11 12 13 13 12 11 10 10 9 9 9 9 8 6 5 4 5 8 9 8 7 7 8 9 8 7 7 6 6 6 6 4 4 4 6
18 16 14 12 11 12 11 11 12 12 12 12 11 10 9 9 8 8 8 8 7 6 4 5 8 10 8 7 8 9 10 9 8 8 8 7 7 7 6 5 5 6
18 15 13 11 10 10 11 12 13 12 12 12 11 10 9 8 8 8 7 7 7 6 4 5 8 11 9 8 9 10 10 9 8 8 7 7 8 8 8 8 7 8
17 15 13 12 11 11 12 12 13 13 12 12 11 10 9 8 8 7 7 7 7 7 5 5 8 11 10 9 9 10 9 8 8 8 7 7 8 9 10 10 9 10
16 15 15 13 12 12 12 12 12 12 12 11 10 9 9 8 8 7 7 7 8 8 6 5 8 11 11 10 10 10 9 8 7 8 8 7 8 10 11 10 10 10
17 16 16 14 13 12 12 12 13 12 11 10 9 8 8 9 8 7 7 8 8 8 7 6 8 11 11 10 10 11 9 8 7 7 7 8 8 9 10 10 9 9
18 17 16 15 13 12 12 13 13 13 11 9 8 8 8 9 8 8 8 8 9 9 9 8 8 10 11 11 11 11 10 8 7 6 7 8 8 8 8 9 8 7
18 17 17 15 13 12 13 14 14 13 12 9 7 6 7 8 9 9 8 9 10 10 10 9 8 10 11 12 12 11 10 8 7 6 7 9 9 7 7 8 7 6
19 18 17 15 13 12 13 15 15 13 12 10 7 5 6 7 7 8 9 9 10 11 11 10 9 10 11 12 12 12 10 9 9 9 10 9 9 8 7 6 5 5
19 18 18 16 13 12 14 16 15 13 11 10 7 5 5 6 6 7 9 9 10 11 11 11 11 11 12 13 13 12 12 11 11 11 10 10 9 8 6 5 5 5
18 18 18 16 14 14 15 16 15 14 12 10 8 6 4 4 5 6 8 9 11 12 13 12 13 13 14 14 14 13 12 11 10 10 9 9 8 7 6 5 5 5
17 18 19 17 15 15 15 15 16 15 13 11 8 6 5 4 4 6 9 10 11 14 15 14 14 15 15 15 15 14 13 11 10 9 8 8 7 6 6 6 5 4
17 19 19 18 17 17 16 15 16 16 15 12 10 8 6 5 4 6 9 11 12 15 15 15 16 16 16 15 14 13 13 11 10 9 8 7 7 7 7 6 5 4
19 21 21 20 20 19 18 16 16 16 16 13 10 9 8 7 6 6 9 11 12 14 15 15 16 16 15 14 13 12 11 11 10 9 7 7 6 6 7 7 6 5
21 22 22 22 21 21 21 19 17 16 16 14 11 10 9 8 8 7 8 10 11 12 13 14 14 15 14 13 12 11 10 9 9 8 7 6 4 4 5 6 6 5
21 22 22 21 22 22 20 18 17 14 13 13 12 10 10 9 9 8 8 9 10 11 12 12 12 13 13 12 12 11 10 9 9 8 7 6 5 5 5 6 6 6
19 21 21 21 21 20 18 16 17 18 17 16 15 13 11 10 10 10 9 9 9 10 11 12 12 13 13 13 12 12 11 10 10 9 9 8 8 8 7 7 8 8
17 18 18 18 18 18 16 13 13 16 18 16 15 14 13 12 10 9 10 9 10 10 11 12 14 14 14 14 14 13 13 13 13 12 12 12 12 11 11 11 11 11
12 14 15 17 16 15 13 10 11 15 17 16 15 15 16 16 13 11 11 11 11 12 12 13 14 15 15 15 15 15 15 15 15 14 14 15 15 15 15 15 15 15
9 11 12 14 15 14 12 11 12 15 15 16 16 16 17 16 14 13 12 12 12 12 13 13 15 16 16 16 15 15 15 15 16 16 16 17 17 17 17 17 18 17
11 12 11 11 11 11 11 10 11 12 13 15 15 15 13 13 13 12 12 12 12 12 12 13 14 15 16 17 16 16 16 17 17 17 18 18 18 18 18 18 18 18
11 12 11 9 8 7 8 8 8 10 11 12 13 14 14 13 12 12 13 13 13 13 14 14 15 15 16 17 17 18 18 18 19 19 19 19 19 19 20 20 20 20
11 10 9 7 6 7 7 7 8 8 8 8 10 13 13 13 13 12 12 13 13 13 13 12 12 13 14 16 17 18 18 18 18 19 19 19 19 20 20 20 20 21
12 10 9 8 7 7 7 7 7 7 7 7 8 8 9 10 10 10 10 10 10 11 12 12 12 13 14 14 15 16 16 16 17 17 17 17 17 18 18 18 18 18
12 10 9 8 8 8 7 6 5 5 5 5 6 6 6 6 7 7 8 9 9 9 10 12 14 14 14 14 14 14 14 15 15 15 16 17 17 18 18 17 17 18
Wind_Direction
179 180 179 173 168 163 156 154 148 140 138 140 141 145 147 146 148 151 151 150 148 141 144 163 169 165 160 157 152 150 147 145 147 142 129 116 103 103 121 151 174 183
176 174 176 173 167 163 154 151 148 140 139 142 144 146 146 143 143 144 145 147 147 140 143 164 172 170 165 162 157 145 133 124 120 114 105 96 87 84 97 128 158 171
179 174 175 175 168 161 156 155 151 144 143 146 150 153 152 151 150 145 139 141 142 138 136 153 169 171 169 167 157 138 124 116 112 107 96 88 82 81 88 110 139 153
183 176 176 175 171 165 164 162 156 150 148 147 151 158 160 160 159 152 142 140 142 139 131 142 164 171 171 168 155 135 122 118 117 110 99 91 86 86 90 98 118 138
184 177 177 178 176 173 171 167 161 158 153 148 150 155 161 166 165 158 148 143 145 143 132 135 158 168 168 166 156 138 127 126 124 116 109 105 97 91 92 95 104 117
185 179 178 180 180 174 172 170 164 161 154 146 145 149 155 164 166 162 152 145 147 148 140 132 151 164 166 166 163 151 140 137 133 124 118 117 109 97 92 93 99 106
187 182 179 181 180 173 171 170 164 159 152 143 143 148 154 158 163 164 154 146 149 154 150 137 144 159 164 167 167 160 152 146 142 137 130 125 119 108 99 95 98 105
185 182 181 182 180 174 171 170 165 159 152 145 144 151 155 154 158 163 157 151 156 161 158 149 146 154 162 167 166 160 153 148 147 149 143 136 128 120 112 104 100 104
182 182 183 184 182 177 173 169 164 159 154 149 144 148 155 155 157 162 162 161 163 166 164 161 156 154 159 163 160 153 147 141 138 139 139 140 139 134 124 116 111 112
182 183 184 186 184 180 175 167 161 156 153 148 139 140 156 162 162 163 165 168 168 169 169 168 166 160 157 158 154 147 141 134 129 128 128 132 139 145 144 140 139 138
184 184 186 187 185 181 173 167 163 159 155 151 140 130 147 166 170 166 167 169 169 170 171 170 169 163 158 157 153 147 143 138 134 131 129 130 134 141 152 160 167 174
187 186 187 188 187 180 170 166 168 166 160 154 143 126 132 160 173 173 169 168 170 170 170 169 168 163 160 159 156 153 150 149 147 144 142 142 142 145 150 158 170 185
189 189 189 190 189 182 172 168 171 171 166 160 149 132 129 150 171 179 174 171 172 171 170 169 168 166 165 164 163 161 161 160 161 161 160 161 162 163 165 169 176 189
193 192 191 192 192 187 181 175 173 173 171 166 156 141 134 143 165 184 181 176 176 175 173 173 172 172 171 171 171 171 172 173 174 175 177 178 181 185 187 186 184 187
198 193 191 194 195 193 192 186 179 178 177 174 165 153 149 149 157 177 182 178 179 180 180 180 179 179 179 179 180 181 182 185 187 189 191 193 197 202 205 205 198 191
198 194 191 193 197 198 197 189 176 171 175 178 173 162 158 154 151 165 176 175 178 184 187 189 189 190 191 192 193 194 198 203 206 209 209 208 211 213 216 213 203 196
196 197 196 199 201 203 202 194 185 184 191 197 191 173 162 157 153 158 168 171 175 180 186 193 198 201 204 206 206 207 209 210 212 216 217 216 219 219 216 211 208 213
197 200 203 207 208 212 221 222 217 219 222 219 208 194 184 176 168 166 169 174 178 181 184 190 198 203 204 206 208 209 211 211 213 217 221 226 231 232 232 229 228 234
204 206 212 216 216 220 228 228 219 214 212 210 209 210 210 207 201 195 192 196 200 200 200 201 205 207 208 209 211 213 217 221 224 227 231 234 239 242 244 244 245 248
205 208 214 216 212 208 205 198 195 200 205 210 215 218 215 215 221 223 219 220 224 223 222 222 222 221 222 223 224 226 230 232 235 238 239 240 242 243 244 246 248 251
181 188 194 195 192 190 189 193 199 205 212 216 217 216 211 212 222 229 230 233 236 237 239 239 237 235 235 236 239 241 243 246 248 249 249 249 248 247 247 248 250 252
162 169 173 175 179 184 192 200 203 208 212 213 216 218 212 210 218 225 229 232 233 234 237 240 241 241 241 242 245 247 249 252 255 257 256 256 254 253 253 254 255 258
143 152 157 161 171 180 191 200 205 209 206 199 202 209 209 212 217 219 222 225 227 229 231 234 239 242 244 247 248 250 253 256 259 261 261 261 260 259 260 261 262 263
122 129 136 148 169 179 187 196 204 209 205 193 195 204 211 219 222 222 225 228 230 232 231 232 239 245 249 252 253 255 257 259 261 262 262 263 263 264 265 267 268 269
112 115 122 136 153 159 167 180 187 192 198 198 200 206 215 220 221 226 235 237 240 247 248 253 263 265 261 258 258 259 260 261 262 262 264 266 268 270 272 274 275 276
109 111 115 123 130 133 140 151 154 157 173 189 199 208 221 232 236 247 255 256 259 265 264 264 266 266 265 264 264 264 265 267 268 269 271 271 272 274 275 276 278 279
Height
1532 1534 1535 1536 1537 1538 1539 1540 1542 1544 1545 1546 1548 1549 1551 1552 1553 1555 1556 1557 1558 1558 1558 1558 1559 1560 1561 1562 1563 1563 1564 1565 1565 1565 1566 1566 1567 1568 1568 1569 1570 1571
1530 1532 1534 1535 1537 1538 1539 1541 1542 1543 1544 1546 1547 1549 1550 1552 1553 1554 1555 1556 1557 1557 1558 1558 1558 1559 1560 1561 1562 1563 1564 1565 1565 1566 1567 1567 1568 1568 1568 1569 1570 1571
1530 1531 1533 1535 1537 1538 1540 1541 1542 1543 1544 1545 1547 1548 1550 1551 1552 1553 1554 1555 1556 1557 1557 1557 1558 1559 1560 1561 1562 1563 1564 1565 1566 1567 1567 1568 1568 1569 1569 1569 1570 1571
1530 1531 1533 1535 1537 1539 1540 1540 1541 1542 1543 1545 1546 1548 1549 1550 1552 1552 1554 1555 1556 1557 1557 1557 1558 1559 1560 1561 1562 1564 1565 1566 1566 1567 1568 1568 1569 1569 1570 1570 1571 1571
1529 1531 1532 1535 1537 1538 1539 1540 1540 1541 1543 1544 1545 1547 1548 1549 1551 1552 1553 1554 1555 1556 1557 1557 1558 1559 1560 1562 1563 1564 1565 1566 1566 1567 1568 1569 1569 1570 1570 1571 1571 1572
1529 1530 1532 1534 1536 1537 1539 1539 1540 1541 1542 1543 1544 1546 1547 1548 1550 1551 1552 1554 1555 1556 1557 1557 1558 1559 1561 1562 1563 1564 1565 1565 1566 1567 1568 1569 1570 1571 1571 1572 1572 1573
1528 1530 1531 1534 1535 1537 1538 1539 1540 1540 1541 1543 1544 1546 1547 1548 1549 1551 1552 1553 1554 1555 1557 1558 1558 1559 1561 1562 1563 1564 1565 1565 1566 1567 1568 1569 1570 1571 1572 1572 1573 1574
1528 1530 1531 1533 1535 1536 1538 1538 1539 1540 1541 1542 1544 1545 1546 1548 1549 1551 1552 1553 1554 1555 1556 1558 1559 1560 1561 1562 1563 1564 1565 1566 1566 1567 1568 1569 1570 1571 1572 1573 1574 1575
1527 1529 1531 1533 1535 1536 1537 1537 1539 1540 1541 1542 1544 1545 1546 1547 1549 1551 1552 1553 1554 1555 1556 1558 1559 1560 1561 1562 1563 1564 1565 1566 1566 1567 1568 1569 1571 1572 1573 1573 1574 1575
1526 1528 1530 1532 1534 1535 1536 1537 1538 1540 1541 1542 1544 1545 1546 1547 1549 1550 1552 1553 1554 1555 1556 1557 1559 1560 1561 1562 1563 1564 1565 1566 1567 1567 1568 1569 1571 1572 1573 1574 1575 1576
1524 1527 1529 1531 1533 1534 1535 1537 1538 1540 1541 1542 1544 1545 1546 1547 1549 1550 1551 1552 1553 1555 1556 1557 1558 1560 1561 1562 1564 1565 1565 1566 1567 1568 1569 1570 1571 1572 1573 1574 1575 1576
1523 1526 1528 1530 1531 1533 1534 1536 1538 1539 1541 1542 1544 1545 1546 1547 1548 1550 1551 1552 1553 1554 1556 1557 1558 1560 1561 1563 1564 1565 1566 1567 1568 1568 1569 1570 1571 1572 1572 1573 1574 1575
1523 1525 1527 1529 1531 1532 1534 1535 1537 1539 1541 1542 1543 1544 1545 1547 1548 1549 1550 1552 1553 1554 1555 1557 1558 1560 1561 1563 1564 1565 1566 1567 1568 1569 1569 1570 1571 1572 1572 1573 1574 1575
1523 1525 1526 1529 1530 1532 1533 1535 1537 1539 1540 1542 1543 1544 1545 1546 1548 1549 1550 1551 1552 1554 1555 1557 1558 1560 1561 1562 1564 1565 1566 1567 1568 1569 1570 1570 1571 1571 1572 1573 1574 1574
1523 1524 1525 1528 1529 1531 1533 1535 1537 1538 1540 1542 1543 1544 1544 1546 1547 1549 1550 1551 1552 1553 1555 1557 1558 1559 1561 1562 1564 1565 1566 1567 1568 1569 1570 1570 1571 1571 1571 1572 1573 1573
1521 1522 1524 1527 1529 1531 1532 1533 1536 1538 1541 1542 1543 1543 1544 1545 1546 1548 1549 1550 1551 1553 1555 1557 1558 1559 1560 1562 1563 1564 1565 1567 1568 1569 1569 1570 1570 1570 1571 1571 1572 1572
1520 1522 1524 1526 1528 1529 1530 1532 1535 1539 1541 1542 1543 1543 1544 1545 1546 1547 1549 1550 1551 1553 1554 1556 1558 1559 1560 1561 1562 1563 1564 1565 1566 1567 1568 1569 1569 1569 1570 1570 1571 1571
1521 1522 1524 1525 1527 1529 1530 1532 1536 1538 1540 1541 1542 1543 1543 1544 1545 1547 1548 1550 1551 1553 1554 1555 1556 1557 1558 1559 1560 1561 1562 1563 1564 1565 1566 1567 1568 1568 1569 1569 1570 1570
1521 1523 1524 1525 1527 1528 1530 1532 1535 1536 1538 1539 1541 1542 1543 1544 1545 1546 1548 1549 1551 1552 1553 1553 1555 1556 1557 1558 1559 1560 1560 1561 1562 1563 1564 1565 1566 1566 1567 1567 1568 1568
1521 1522 1524 1524 1526 1528 1530 1532 1534 1536 1537 1539 1540 1541 1542 1543 1545 1546 1548 1549 1550 1551 1551 1552 1554 1555 1556 1556 1557 1558 1559 1560 1560 1561 1562 1563 1563 1564 1564 1565 1565 1565
1521 1522 1524 1525 1527 1529 1530 1532 1534 1535 1537 1538 1539 1540 1541 1543 1545 1546 1547 1548 1549 1549 1550 1551 1552 1553 1554 1554 1555 1556 1557 1558 1558 1559 1560 1560 1561 1561 1562 1562 1562 1562
1522 1523 1525 1526 1528 1529 1531 1532 1534 1535 1536 1537 1537 1539 1540 1542 1543 1545 1546 1546 1547 1548 1549 1550 1551 1551 1552 1552 1553 1554 1555 1556 1556 1557 1558 1558 1558 1559 1559 1559 1560 1560
1523 1524 1525 1527 1529 1530 1531 1532 1533 1535 1535 1536 1537 1538 1539 1540 1541 1543 1544 1544 1545 1546 1547 1548 1549 1549 1550 1550 1551 1552 1553 1553 1554 1555 1555 1555 1556 1556 1556 1557 1557 1557
1525 1526 1527 1528 1529 1531 1532 1533 1534 1535 1536 1537 1538 1538 1538 1539 1541 1542 1543 1543 1544 1545 1545 1546 1547 1547 1548 1549 1549 1550 1550 1551 1551 1552 1552 1553 1553 1553 1553 1554 1554 1554
1527 1528 1528 1529 1530 1531 1532 1533 1534 1535 1536 1537 1538 1538 1538 1539 1540 1542 1542 1543 1544 1544 1544 1545 1546 1546 1547 1547 1548 1548 1548 1548 1549 1549 1549 1550 1550 1551 1551 1551 1551 1551
1529 1529 1530 1531 1532 1532 1533 1534 1534 1535 1536 1537 1537 1538 1538 1539 1540 1541 1541 1542 1542 1543 1543 1544 1545 1546 1546 1546 1546 1546 1546 1546 1546 1547 1547 1547 1547 1548 1548 1548 1548 1548